Torna al catalogo

COSMOS 2251 DEB

AttivoLEO
NORAD 34726·DEBRIS·🇷🇺 Russia

Lanciato Jun 16, 1993 da Plesetsk Cosmodrome

Loading…

Prossimi Passaggi (prossime 24 ore)

TLE

AggiornatoSource: Space-Track

Epoca: Sep 14, 2026, 13:59 UTC

1 34726U 93036YU  26257.58319517  .00000946  00000-0  19885-3 0  9997
2 34726  74.0282 179.6395 0044576 258.9736 100.6415 14.60469083925287

Traccia COSMOS 2251 DEB in tempo reale con AllMySat

Download on the App Store